Time,TemperatureF,DewpointF,PressureIn,WindDirection,WindDirectionDegrees,WindSpeedMPH,WindSpeedGustMPH,Humidity,HourlyPrecipIn,Conditions,Clouds,dailyrainin,SolarRadiationWatts/m^2,SoftwareType,DateUTC
2013-03-28 00:00:00,37.0,25.2,30.24,WSW,254,2.6,8.1,62,0.00,OVC,,0.00,0.0,WeatherDisplay:10.37,2013-03-28 04:00:00,
2013-03-28 00:05:00,37.0,25.2,30.24,West,275,5.4,8.1,62,0.00,OVC,,0.00,0.0,WeatherDisplay:10.37,2013-03-28 04:05:00,
2013-03-28 00:10:00,36.9,25.1,30.24,WNW,294,4.0,6.0,62,0.00,OVC,,0.00,0.0,WeatherDisplay:10.37,2013-03-28 04:10:00,
2013-03-28 00:15:00,36.7,24.9,30.25,West,280,4.0,8.1,62,0.00,OVC,,0.00,0.0,WeatherDisplay:10.37,2013-03-28 04:15:00,
2013-03-28 00:20:00,36.7,24.9,30.24,West,273,3.5,8.1,62,0.00,OVC,,0.00,0.0,WeatherDisplay:10.37,2013-03-28 04:20:00,
2013-03-28 00:25:00,36.6,24.8,30.25,West,263,4.3,9.2,62,0.00,OVC,,0.00,0.0,WeatherDisplay:10.37,2013-03-28 04:25:00,
2013-03-28 00:30:00,36.6,24.8,30.25,West,269,3.1,5.8,62,0.00,OVC,,0.00,0.0,WeatherDisplay:10.37,2013-03-28 04:30:00,
2013-03-28 00:35:00,36.5,25.1,30.24,West,281,3.5,6.0,63,0.00,OVC,,0.00,0.0,WeatherDisplay:10.37,2013-03-28 04:35:00,
2013-03-28 00:40:00,36.5,25.1,30.25,WSW,240,2.3,3.5,63,0.00,OVC,,0.00,0.0,WeatherDisplay:10.37,2013-03-28 04:40:00,
2013-03-28 00:45:00,36.4,25.0,30.25,WNW,291,3.7,6.0,63,0.00,OVC,,0.00,0.0,WeatherDisplay:10.37,2013-03-28 04:45:00,
2013-03-28 00:50:00,36.4,24.6,30.25,WNW,288,3.5,5.8,62,0.00,OVC,,0.00,0.0,WeatherDisplay:10.37,2013-03-28 04:50:00,
2013-03-28 00:55:00,36.4,25.0,30.25,NNW,332,3.2,5.8,63,0.00,OVC,,0.00,0.0,WeatherDisplay:10.37,2013-03-28 04:55:00,
2013-03-28 01:00:00,36.3,24.9,30.25,NNW,340,3.6,5.8,63,0.00,OVC,,0.00,0.0,WeatherDisplay:10.37,2013-03-28 05:00:00,
2013-03-28 01:05:00,36.2,24.8,30.25,WNW,283,2.7,8.1,63,0.00,OVC,,0.00,0.0,WeatherDisplay:10.37,2013-03-28 05:05:00,
2013-03-28 01:10:00,36.2,24.8,30.25,West,262,3.2,4.0,63,0.00,OVC,,0.00,0.0,WeatherDisplay:10.37,2013-03-28 05:10:00,
2013-03-28 01:15:00,36.2,24.8,30.25,West,274,2.4,6.9,63,0.00,OVC,,0.00,0.0,WeatherDisplay:10.37,2013-03-28 05:15:00,
2013-03-28 01:20:00,36.1,24.7,30.25,West,281,3.3,4.6,63,0.00,OVC,,0.00,0.0,WeatherDisplay:10.37,2013-03-28 05:20:00,
2013-03-28 01:25:00,36.1,24.7,30.25,WNW,294,2.3,6.9,63,0.00,OVC,,0.00,0.0,WeatherDisplay:10.37,2013-03-28 05:25:00,
2013-03-28 01:30:00,36.0,24.2,30.25,West,266,4.4,9.2,62,0.00,OVC,,0.00,0.0,WeatherDisplay:10.37,2013-03-28 05:30:00,
2013-03-28 01:35:00,36.0,24.6,30.25,West,275,3.2,3.5,63,0.00,OVC,,0.00,0.0,WeatherDisplay:10.37,2013-03-28 05:35:00,
2013-03-28 01:40:00,35.9,24.1,30.25,WNW,289,3.3,5.8,62,0.00,OVC,,0.00,0.0,WeatherDisplay:10.37,2013-03-28 05:40:00,
2013-03-28 01:45:00,35.8,24.0,30.25,West,269,4.4,10.4,62,0.00,OVC,,0.00,0.0,WeatherDisplay:10.37,2013-03-28 05:45:00,
2013-03-28 01:50:00,35.8,24.4,30.25,WNW,292,3.1,5.8,63,0.00,OVC,,0.00,0.0,WeatherDisplay:10.37,2013-03-28 05:50:00,
2013-03-28 01:55:00,35.7,24.3,30.25,WNW,285,4.2,5.0,63,0.00,OVC,,0.00,0.0,WeatherDisplay:10.37,2013-03-28 05:55:00,
2013-03-28 02:00:00,35.6,24.2,30.25,NW,311,4.0,5.8,63,0.00,OVC,,0.00,0.0,WeatherDisplay:10.37,2013-03-28 06:00:00,
2013-03-28 02:05:00,35.5,24.1,30.25,WNW,296,3.7,5.8,63,0.00,OVC,,0.00,0.0,WeatherDisplay:10.37,2013-03-28 06:05:00,
2013-03-28 02:10:00,35.5,24.1,30.25,North,355,3.7,5.8,63,0.00,OVC,,0.00,0.0,WeatherDisplay:10.37,2013-03-28 06:10:00,
2013-03-28 02:15:00,35.4,24.0,30.25,WNW,286,3.6,3.6,63,0.00,OVC,,0.00,0.0,WeatherDisplay:10.37,2013-03-28 06:15:00,
2013-03-28 02:20:00,35.3,24.3,30.25,WNW,289,3.4,4.6,64,0.00,OVC,,0.00,0.0,WeatherDisplay:10.37,2013-03-28 06:20:00,
2013-03-28 02:25:00,35.2,24.2,30.25,WNW,302,2.6,4.0,64,0.00,OVC,,0.00,0.0,WeatherDisplay:10.37,2013-03-28 06:25:00,
2013-03-28 02:30:00,35.2,23.9,30.25,NW,309,4.4,13.8,63,0.00,OVC,,0.00,0.0,WeatherDisplay:10.37,2013-03-28 06:30:00,
2013-03-28 02:35:00,35.2,23.9,30.25,West,278,3.9,5.8,63,0.00,OVC,,0.00,0.0,WeatherDisplay:10.37,2013-03-28 06:35:00,
2013-03-28 02:40:00,35.1,23.8,30.25,West,279,2.9,4.6,63,0.00,OVC,,0.00,0.0,WeatherDisplay:10.37,2013-03-28 06:40:00,
2013-03-28 02:45:00,35.1,23.8,30.25,West,277,3.5,5.8,63,0.00,OVC,,0.00,0.0,WeatherDisplay:10.37,2013-03-28 06:45:00,
2013-03-28 02:50:00,35.0,23.7,30.25,NW,307,3.2,5.8,63,0.00,OVC,,0.00,0.0,WeatherDisplay:10.37,2013-03-28 06:50:00,
2013-03-28 02:55:00,34.8,23.5,30.25,West,273,3.1,5.8,63,0.00,OVC,,0.00,0.0,WeatherDisplay:10.37,2013-03-28 06:55:00,
2013-03-28 03:00:00,34.8,23.5,30.25,West,276,4.3,6.9,63,0.00,OVC,,0.00,0.0,WeatherDisplay:10.37,2013-03-28 07:00:00,
2013-03-28 03:05:00,34.7,23.4,30.25,WNW,284,4.2,6.9,63,0.00,OVC,,0.00,0.0,WeatherDisplay:10.37,2013-03-28 07:05:00,
2013-03-28 03:10:00,34.6,23.3,30.25,West,273,4.2,6.9,63,0.00,OVC,,0.00,0.0,WeatherDisplay:10.37,2013-03-28 07:10:00,
2013-03-28 03:15:00,34.4,23.1,30.25,West,275,3.8,5.8,63,0.00,OVC,,0.00,0.0,WeatherDisplay:10.37,2013-03-28 07:15:00,
2013-03-28 03:20:00,34.4,23.1,30.25,WNW,286,4.7,8.1,63,0.00,OVC,,0.00,0.0,WeatherDisplay:10.37,2013-03-28 07:20:00,
2013-03-28 03:25:00,34.4,23.1,30.25,WNW,292,6.3,12.7,63,0.00,OVC,,0.00,0.0,WeatherDisplay:10.37,2013-03-28 07:25:00,
2013-03-28 03:30:00,34.3,23.4,30.25,WSW,244,2.9,5.0,64,0.00,OVC,,0.00,0.0,WeatherDisplay:10.37,2013-03-28 07:30:00,
2013-03-28 03:35:00,34.2,23.3,30.25,WNW,298,3.7,6.0,64,0.00,OVC,,0.00,0.0,WeatherDisplay:10.37,2013-03-28 07:35:00,
2013-03-28 03:40:00,34.1,23.2,30.25,WNW,286,2.6,4.6,64,0.00,OVC,,0.00,0.0,WeatherDisplay:10.37,2013-03-28 07:40:00,
2013-03-28 03:46:00,34.0,23.1,30.25,West,260,3.6,7.0,64,0.00,OVC,,0.00,0.0,WeatherDisplay:10.37,2013-03-28 07:46:00,
2013-03-28 03:51:00,34.0,23.1,30.25,WNW,288,3.8,5.8,64,0.00,OVC,,0.00,0.0,WeatherDisplay:10.37,2013-03-28 07:51:00,
2013-03-28 03:56:00,34.0,23.5,30.25,WNW,286,2.9,3.5,65,0.00,OVC,,0.00,0.0,WeatherDisplay:10.37,2013-03-28 07:56:00,
2013-03-28 04:01:00,33.9,23.4,30.25,NNW,330,2.4,4.6,65,0.00,OVC,,0.00,0.0,WeatherDisplay:10.37,2013-03-28 08:01:00,
2013-03-28 04:06:00,33.9,23.4,30.25,West,277,2.9,5.8,65,0.00,OVC,,0.00,0.0,WeatherDisplay:10.37,2013-03-28 08:06:00,
2013-03-28 04:11:00,33.8,23.3,30.25,WNW,286,3.3,4.6,65,0.00,OVC,,0.00,0.0,WeatherDisplay:10.37,2013-03-28 08:11:00,
2013-03-28 04:16:00,33.7,23.2,30.25,West,279,3.4,6.9,65,0.00,OVC,,0.00,0.0,WeatherDisplay:10.37,2013-03-28 08:16:00,
2013-03-28 04:21:00,33.5,23.4,30.25,West,274,2.7,3.5,66,0.00,OVC,,0.00,0.0,WeatherDisplay:10.37,2013-03-28 08:21:00,
2013-03-28 04:26:00,33.4,23.3,30.25,West,265,2.5,4.0,66,0.00,OVC,,0.00,0.0,WeatherDisplay:10.37,2013-03-28 08:26:00,
2013-03-28 04:31:00,33.2,23.4,30.25,West,277,2.6,4.0,67,0.00,OVC,,0.00,0.0,WeatherDisplay:10.37,2013-03-28 08:31:00,
2013-03-28 04:36:00,33.1,23.3,30.25,NW,310,4.2,6.9,67,0.00,OVC,,0.00,0.0,WeatherDisplay:10.37,2013-03-28 08:36:00,
2013-03-28 04:41:00,33.0,23.6,30.25,WNW,286,1.6,5.8,68,0.00,OVC,,0.00,0.0,WeatherDisplay:10.37,2013-03-28 08:41:00,
2013-03-28 04:46:00,32.8,23.4,30.25,West,273,4.0,8.1,68,0.00,OVC,,0.00,0.0,WeatherDisplay:10.37,2013-03-28 08:46:00,
2013-03-28 04:51:00,32.6,23.6,30.25,West,265,2.3,6.0,69,0.00,OVC,,0.00,0.0,WeatherDisplay:10.37,2013-03-28 08:51:00,
2013-03-28 04:56:00,32.5,23.5,30.25,WNW,295,2.5,3.5,69,0.00,OVC,,0.00,0.0,WeatherDisplay:10.37,2013-03-28 08:56:00,
2013-03-28 05:01:00,32.4,23.7,30.25,West,281,3.1,3.5,70,0.00,OVC,,0.00,0.0,WeatherDisplay:10.37,2013-03-28 09:01:00,
2013-03-28 05:06:00,32.3,23.6,30.25,WNW,286,4.6,6.9,70,0.00,OVC,,0.00,0.0,WeatherDisplay:10.37,2013-03-28 09:06:00,
2013-03-28 05:11:00,32.2,23.5,30.25,West,261,2.7,3.5,70,0.00,OVC,,0.00,0.0,WeatherDisplay:10.37,2013-03-28 09:11:00,
2013-03-28 05:16:00,32.1,23.8,30.25,WNW,284,2.2,6.0,71,0.00,SCT,,0.00,0.0,WeatherDisplay:10.37,2013-03-28 09:16:00,
2013-03-28 05:21:00,32.0,23.7,30.24,WNW,292,2.9,3.5,71,0.00,SCT,,0.00,0.0,WeatherDisplay:10.37,2013-03-28 09:21:00,
2013-03-28 05:26:00,32.0,24.0,30.24,WNW,282,5.4,9.2,72,0.00,SCT,,0.00,0.0,WeatherDisplay:10.37,2013-03-28 09:26:00,
2013-03-28 05:31:00,32.0,24.0,30.24,WSW,247,2.2,4.0,72,0.00,SCT,,0.00,0.0,WeatherDisplay:10.37,2013-03-28 09:31:00,
2013-03-28 05:36:00,31.9,23.9,30.24,West,263,3.9,6.9,72,0.00,SCT,,0.00,0.0,WeatherDisplay:10.37,2013-03-28 09:36:00,
2013-03-28 05:41:00,32.0,24.3,30.24,WNW,288,4.2,6.9,73,0.00,SCT,,0.00,0.0,WeatherDisplay:10.37,2013-03-28 09:41:00,
2013-03-28 05:46:00,31.9,24.2,30.24,WNW,296,3.9,4.6,73,0.00,SCT,,0.00,0.0,WeatherDisplay:10.37,2013-03-28 09:46:00,
2013-03-28 05:51:00,31.8,24.1,30.24,WNW,285,4.0,4.6,73,0.00,SCT,,0.00,0.0,WeatherDisplay:10.37,2013-03-28 09:51:00,
2013-03-28 05:56:00,31.8,24.1,30.24,WNW,290,2.6,5.0,73,0.00,SCT,,0.00,0.0,WeatherDisplay:10.37,2013-03-28 09:56:00,
2013-03-28 06:01:00,31.7,24.4,30.24,West,266,3.1,4.6,74,0.00,SCT,,0.00,0.0,WeatherDisplay:10.37,2013-03-28 10:01:00,
2013-03-28 06:06:00,31.7,24.4,30.24,WNW,286,3.5,6.9,74,0.00,SCT,,0.00,0.0,WeatherDisplay:10.37,2013-03-28 10:06:00,
2013-03-28 06:11:00,31.7,24.4,30.24,WNW,288,3.8,5.0,74,0.00,SCT,,0.00,0.0,WeatherDisplay:10.37,2013-03-28 10:11:00,
2013-03-28 06:16:00,31.6,24.6,30.24,West,269,3.4,5.0,75,0.00,SCT,,0.00,0.0,WeatherDisplay:10.37,2013-03-28 10:16:00,
2013-03-28 06:21:00,31.6,24.6,30.25,WNW,283,3.2,5.8,75,0.00,SCT,,0.00,0.0,WeatherDisplay:10.37,2013-03-28 10:21:00,
2013-03-28 06:27:00,31.4,24.4,30.25,West,279,3.3,6.0,75,0.00,SCT,,0.00,0.0,WeatherDisplay:10.37,2013-03-28 10:27:00,
2013-03-28 06:32:00,31.4,24.4,30.25,WNW,284,1.6,3.5,75,0.00,SCT,,0.00,0.0,WeatherDisplay:10.37,2013-03-28 10:32:00,
2013-03-28 06:37:00,31.3,24.6,30.25,West,273,1.7,3.5,76,0.00,SCT,,0.00,0.0,WeatherDisplay:10.37,2013-03-28 10:37:00,
2013-03-28 06:42:00,31.2,24.5,30.25,West,270,1.3,4.6,76,0.00,SCT,,0.00,0.0,WeatherDisplay:10.37,2013-03-28 10:42:00,
2013-03-28 06:47:00,31.2,24.5,30.25,WNW,283,3.1,3.5,76,0.00,SCT,,0.00,0.0,WeatherDisplay:10.37,2013-03-28 10:47:00,
2013-03-28 06:52:00,31.1,24.7,30.26,WNW,291,1.7,4.6,77,0.00,SCT,,0.00,0.0,WeatherDisplay:10.37,2013-03-28 10:52:00,
2013-03-28 06:57:00,31.1,24.7,30.25,WNW,294,1.8,5.8,77,0.00,SCT,,0.00,0.0,WeatherDisplay:10.37,2013-03-28 10:57:00,
2013-03-28 07:02:00,31.2,24.8,30.26,West,280,2.3,4.6,77,0.00,SCT,,0.00,0.0,WeatherDisplay:10.37,2013-03-28 11:02:00,
2013-03-28 07:07:00,31.2,24.8,30.26,West,281,3.2,4.6,77,0.00,SCT,,0.00,0.0,WeatherDisplay:10.37,2013-03-28 11:07:00,
2013-03-28 07:12:00,31.3,24.9,30.26,West,273,1.0,3.5,77,0.00,BKN,,0.00,0.0,WeatherDisplay:10.37,2013-03-28 11:12:00,
2013-03-28 07:17:00,31.3,24.9,30.26,West,275,1.9,3.5,77,0.00,BKN,,0.00,0.0,WeatherDisplay:10.37,2013-03-28 11:17:00,
2013-03-28 07:22:00,31.4,25.0,30.26,West,269,1.3,3.5,77,0.00,BKN,,0.00,5.0,WeatherDisplay:10.37,2013-03-28 11:22:00,
2013-03-28 07:27:00,31.5,25.1,30.26,WNW,292,2.3,4.0,77,0.00,BKN,,0.00,9.0,WeatherDisplay:10.37,2013-03-28 11:27:00,
2013-03-28 07:32:00,31.6,25.2,30.27,WNW,300,2.0,3.5,77,0.00,BKN,,0.00,12.0,WeatherDisplay:10.37,2013-03-28 11:32:00,
2013-03-28 07:37:00,31.5,25.1,30.27,West,279,1.9,3.5,77,0.00,BKN,,0.00,14.0,WeatherDisplay:10.37,2013-03-28 11:37:00,
2013-03-28 07:42:00,31.5,25.1,30.27,NW,304,2.2,3.5,77,0.00,BKN,,0.00,16.0,WeatherDisplay:10.37,2013-03-28 11:42:00,
2013-03-28 07:47:00,31.5,25.1,30.27,West,275,1.9,3.5,77,0.00,BKN,,0.00,19.0,WeatherDisplay:10.37,2013-03-28 11:47:00,
2013-03-28 07:52:00,31.7,25.3,30.27,West,270,2.0,3.5,77,0.00,BKN,,0.00,33.0,WeatherDisplay:10.37,2013-03-28 11:52:00,
2013-03-28 07:57:00,32.0,25.3,30.27,NW,304,2.3,3.5,76,0.00,BKN,,0.00,47.0,WeatherDisplay:10.37,2013-03-28 11:57:00,
2013-03-28 08:02:00,32.3,25.6,30.27,WSW,252,2.2,3.5,76,0.00,BKN,,0.00,65.0,WeatherDisplay:10.37,2013-03-28 12:02:00,
2013-03-28 08:07:00,32.6,25.9,30.27,West,272,2.0,3.5,76,0.00,BKN,,0.00,76.0,WeatherDisplay:10.37,2013-03-28 12:07:00,
2013-03-28 08:12:00,32.9,25.8,30.27,SW,223,2.0,4.6,75,0.00,BKN,,0.00,91.0,WeatherDisplay:10.37,2013-03-28 12:12:00,
2013-03-28 08:17:00,33.2,25.8,30.28,WNW,290,1.4,3.5,74,0.00,BKN,,0.00,118.0,WeatherDisplay:10.37,2013-03-28 12:17:00,
2013-03-28 08:22:00,33.4,26.0,30.28,North,355,2.7,4.0,74,0.00,BKN,,0.00,62.0,WeatherDisplay:10.37,2013-03-28 12:22:00,
2013-03-28 08:27:00,33.2,25.8,30.28,NW,305,1.7,4.6,74,0.00,BKN,,0.00,65.0,WeatherDisplay:10.37,2013-03-28 12:27:00,
2013-03-28 08:32:00,33.2,25.8,30.28,WNW,290,2.6,4.6,74,0.00,BKN,,0.00,79.0,WeatherDisplay:10.37,2013-03-28 12:32:00,
2013-03-28 08:37:00,33.2,25.8,30.29,WSW,252,2.0,5.8,74,0.00,BKN,,0.00,90.0,WeatherDisplay:10.37,2013-03-28 12:37:00,
2013-03-28 08:42:00,33.3,26.2,30.28,West,268,2.4,3.5,75,0.00,BKN,,0.00,95.0,WeatherDisplay:10.37,2013-03-28 12:42:00,
2013-03-28 08:47:00,33.5,26.1,30.28,WNW,283,1.5,3.5,74,0.00,BKN,,0.00,102.0,WeatherDisplay:10.37,2013-03-28 12:47:00,
2013-03-28 08:52:00,33.6,26.2,30.28,West,279,3.0,4.6,74,0.00,BKN,,0.00,102.0,WeatherDisplay:10.37,2013-03-28 12:52:00,
2013-03-28 08:57:00,33.8,26.4,30.28,West,273,3.2,6.9,74,0.00,BKN,,0.00,107.0,WeatherDisplay:10.37,2013-03-28 12:57:00,
2013-03-28 09:02:00,33.9,26.5,30.28,NW,323,2.0,3.5,74,0.00,BKN,,0.00,120.0,WeatherDisplay:10.37,2013-03-28 13:02:00,
2013-03-28 09:08:00,34.1,26.3,30.29,West,266,2.8,3.5,73,0.00,BKN,,0.00,139.0,WeatherDisplay:10.37,2013-03-28 13:08:00,
2013-03-28 09:13:00,34.3,26.2,30.29,North,360,2.3,4.0,72,0.00,BKN,,0.00,156.0,WeatherDisplay:10.37,2013-03-28 13:13:00,
2013-03-28 09:18:00,34.5,26.4,30.29,NW,313,2.8,4.6,72,0.00,BKN,,0.00,153.0,WeatherDisplay:10.37,2013-03-28 13:18:00,
2013-03-28 09:23:00,34.7,26.6,30.29,NW,306,2.2,4.0,72,0.00,BKN,,0.00,155.0,WeatherDisplay:10.37,2013-03-28 13:23:00,
2013-03-28 09:28:00,34.7,26.3,30.29,WNW,301,2.6,3.5,71,0.00,BKN,,0.00,158.0,WeatherDisplay:10.37,2013-03-28 13:28:00,
2013-03-28 09:33:00,35.0,26.9,30.29,WNW,286,2.3,3.5,72,0.00,BKN,,0.00,163.0,WeatherDisplay:10.37,2013-03-28 13:33:00,
2013-03-28 09:38:00,35.2,26.7,30.29,West,275,3.4,5.0,71,0.00,BKN,,0.00,188.0,WeatherDisplay:10.37,2013-03-28 13:38:00,
2013-03-28 09:43:00,35.4,26.6,30.29,WNW,291,3.5,6.0,70,0.00,BKN,,0.00,202.0,WeatherDisplay:10.37,2013-03-28 13:43:00,
2013-03-28 09:48:00,35.7,27.2,30.29,NNE,24,2.4,5.0,71,0.00,BKN,,0.00,202.0,WeatherDisplay:10.37,2013-03-28 13:48:00,
2013-03-28 09:53:00,36.0,26.8,30.29,NNW,327,3.4,4.0,69,0.00,BKN,,0.00,213.0,WeatherDisplay:10.37,2013-03-28 13:53:00,
2013-03-28 09:58:00,36.1,27.3,30.29,WNW,288,2.1,3.5,70,0.00,BKN,,0.00,207.0,WeatherDisplay:10.37,2013-03-28 13:58:00,
2013-03-28 10:03:00,36.2,27.0,30.30,West,267,1.8,3.5,69,0.00,BKN,,0.00,209.0,WeatherDisplay:10.37,2013-03-28 14:03:00,
2013-03-28 10:08:00,36.5,27.3,30.30,West,271,2.5,3.5,69,0.00,BKN,,0.00,234.0,WeatherDisplay:10.37,2013-03-28 14:08:00,
2013-03-28 10:13:00,36.8,27.2,30.29,WNW,300,1.3,5.8,68,0.00,BKN,,0.00,272.0,WeatherDisplay:10.37,2013-03-28 14:13:00,
2013-03-28 10:18:00,37.2,27.6,30.30,West,265,2.6,4.6,68,0.00,BKN,,0.00,274.0,WeatherDisplay:10.37,2013-03-28 14:18:00,
2013-03-28 10:23:00,37.6,27.3,30.30,NNW,333,3.3,5.8,66,0.00,BKN,,0.00,294.0,WeatherDisplay:10.37,2013-03-28 14:23:00,
2013-03-28 10:28:00,37.9,27.5,30.30,West,281,2.9,4.6,66,0.00,BKN,,0.00,329.0,WeatherDisplay:10.37,2013-03-28 14:28:00,
2013-03-28 10:33:00,38.3,27.6,30.30,NW,311,2.1,5.8,65,0.00,BKN,,0.00,323.0,WeatherDisplay:10.37,2013-03-28 14:33:00,
2013-03-28 10:38:00,38.5,27.7,30.30,West,276,4.0,6.9,65,0.00,BKN,,0.00,322.0,WeatherDisplay:10.37,2013-03-28 14:38:00,
2013-03-28 10:43:00,38.8,27.7,30.30,NW,316,3.2,6.9,64,0.00,BKN,,0.00,325.0,WeatherDisplay:10.37,2013-03-28 14:43:00,
2013-03-28 10:48:00,39.1,27.6,30.30,NNE,28,2.6,3.5,63,0.00,BKN,,0.00,308.0,WeatherDisplay:10.37,2013-03-28 14:48:00,
2013-03-28 10:53:00,39.2,27.7,30.30,West,279,2.4,4.6,63,0.00,BKN,,0.00,264.0,WeatherDisplay:10.37,2013-03-28 14:53:00,
2013-03-28 10:58:00,39.7,27.7,30.30,WNW,298,2.3,6.9,62,0.00,BKN,,0.00,332.0,WeatherDisplay:10.37,2013-03-28 14:58:00,
2013-03-28 11:03:00,39.9,27.9,30.30,NNE,18,2.7,4.0,62,0.00,BKN,,0.00,329.0,WeatherDisplay:10.37,2013-03-28 15:03:00,
2013-03-28 11:08:00,40.2,28.2,30.30,WNW,289,2.2,4.6,62,0.00,BKN,,0.00,309.0,WeatherDisplay:10.37,2013-03-28 15:08:00,
2013-03-28 11:13:00,40.8,28.4,30.30,NW,310,3.8,6.9,61,0.00,BKN,,0.00,320.0,WeatherDisplay:10.37,2013-03-28 15:13:00,
2013-03-28 11:18:00,41.3,28.4,30.30,West,276,4.4,9.2,60,0.00,BKN,,0.00,378.0,WeatherDisplay:10.37,2013-03-28 15:18:00,
2013-03-28 11:23:00,42.0,28.7,30.30,NNE,26,4.1,6.9,59,0.00,BKN,,0.00,471.0,WeatherDisplay:10.37,2013-03-28 15:23:00,
2013-03-28 11:28:00,42.0,28.3,30.30,NNE,23,2.7,8.1,58,0.00,BKN,,0.00,408.0,WeatherDisplay:10.37,2013-03-28 15:28:00,
2013-03-28 11:33:00,42.2,28.5,30.30,WNW,286,2.8,6.9,58,0.00,BKN,,0.00,436.0,WeatherDisplay:10.37,2013-03-28 15:33:00,
2013-03-28 11:38:00,43.2,28.1,30.30,WSW,242,4.0,6.9,55,0.00,BKN,,0.00,371.0,WeatherDisplay:10.37,2013-03-28 15:38:00,
2013-03-28 11:43:00,43.7,28.1,30.30,WNW,286,2.9,5.8,54,0.00,BKN,,0.00,274.0,WeatherDisplay:10.37,2013-03-28 15:43:00,
2013-03-28 11:48:00,43.8,27.8,30.30,NNE,24,3.1,5.8,53,0.00,BKN,,0.00,221.0,WeatherDisplay:10.37,2013-03-28 15:48:00,
2013-03-28 11:53:00,44.3,28.2,30.29,WNW,296,4.4,10.4,53,0.00,BKN,,0.00,786.0,WeatherDisplay:10.37,2013-03-28 15:53:00,
2013-03-28 11:58:00,45.3,28.2,30.30,NW,306,3.5,6.9,51,0.00,BKN,,0.00,793.0,WeatherDisplay:10.37,2013-03-28 15:58:00,
2013-03-28 12:03:00,46.0,28.9,30.30,WNW,289,3.1,5.0,51,0.00,BKN,,0.00,877.0,WeatherDisplay:10.37,2013-03-28 16:03:00,
2013-03-28 12:08:00,46.4,28.3,30.30,North,5,1.6,4.0,49,0.00,BKN,,0.00,766.0,WeatherDisplay:10.37,2013-03-28 16:08:00,
2013-03-28 12:13:00,46.6,27.4,30.29,West,280,4.4,7.0,47,0.00,BKN,,0.00,912.0,WeatherDisplay:10.37,2013-03-28 16:13:00,
2013-03-28 12:18:00,46.6,27.9,30.29,NNW,346,2.9,6.9,48,0.00,BKN,,0.00,937.0,WeatherDisplay:10.37,2013-03-28 16:18:00,
2013-03-28 12:23:00,46.7,28.0,30.29,WNW,292,5.2,8.1,48,0.00,BKN,,0.00,596.0,WeatherDisplay:10.37,2013-03-28 16:23:00,
2013-03-28 12:28:00,46.8,27.1,30.29,WSW,249,3.1,8.1,46,0.00,BKN,,0.00,469.0,WeatherDisplay:10.37,2013-03-28 16:28:00,
2013-03-28 12:33:00,46.9,27.7,30.29,WNW,282,4.1,9.2,47,0.00,BKN,,0.00,520.0,WeatherDisplay:10.37,2013-03-28 16:33:00,
2013-03-28 12:38:00,47.2,27.5,30.29,WNW,292,2.2,4.6,46,0.00,BKN,,0.00,561.0,WeatherDisplay:10.37,2013-03-28 16:38:00,
2013-03-28 12:43:00,47.6,27.3,30.29,NE,45,4.1,6.9,45,0.00,BKN,,0.00,526.0,WeatherDisplay:10.37,2013-03-28 16:43:00,
2013-03-28 12:48:00,47.3,27.0,30.29,NNE,27,3.1,5.8,45,0.00,BKN,,0.00,475.0,WeatherDisplay:10.37,2013-03-28 16:48:00,
2013-03-28 12:53:00,47.5,27.2,30.29,West,263,2.3,4.0,45,0.00,BKN,,0.00,427.0,WeatherDisplay:10.37,2013-03-28 16:53:00,
2013-03-28 12:58:00,48.1,27.2,30.28,West,261,4.4,5.8,44,0.00,BKN,,0.00,972.0,WeatherDisplay:10.37,2013-03-28 16:58:00,
2013-03-28 13:03:00,48.5,27.0,30.28,North,360,3.0,4.6,43,0.00,BKN,,0.00,724.0,WeatherDisplay:10.37,2013-03-28 17:03:00,
2013-03-28 13:08:00,49.0,27.5,30.28,West,273,2.7,6.0,43,0.00,BKN,,0.00,596.0,WeatherDisplay:10.37,2013-03-28 17:08:00,
2013-03-28 13:13:00,48.7,25.4,30.28,SW,227,2.8,3.5,40,0.00,BKN,,0.00,396.0,WeatherDisplay:10.37,2013-03-28 17:13:00,
2013-03-28 13:18:00,48.4,25.8,30.28,ENE,71,2.8,6.9,41,0.00,BKN,,0.00,480.0,WeatherDisplay:10.37,2013-03-28 17:18:00,
2013-03-28 13:23:00,49.1,26.4,30.28,NNE,17,3.0,4.0,41,0.00,BKN,,0.00,480.0,WeatherDisplay:10.37,2013-03-28 17:23:00,
2013-03-28 13:28:00,49.2,26.5,30.28,NNE,22,4.4,6.9,41,0.00,BKN,,0.00,512.0,WeatherDisplay:10.37,2013-03-28 17:28:00,
2013-03-28 13:33:00,49.3,26.0,30.28,ESE,122,2.4,3.5,40,0.00,BKN,,0.00,749.0,WeatherDisplay:10.37,2013-03-28 17:33:00,
2013-03-28 13:38:00,48.9,25.6,30.28,West,269,3.6,6.9,40,0.00,BKN,,0.00,647.0,WeatherDisplay:10.37,2013-03-28 17:38:00,
2013-03-28 13:43:00,48.6,25.3,30.28,NNE,22,2.8,4.6,40,0.00,BKN,,0.00,374.0,WeatherDisplay:10.37,2013-03-28 17:43:00,
2013-03-28 13:48:00,49.0,25.7,30.28,NW,320,3.3,3.5,40,0.00,BKN,,0.00,408.0,WeatherDisplay:10.37,2013-03-28 17:48:00,
2013-03-28 13:53:00,48.9,25.6,30.28,NNW,327,2.5,4.6,40,0.00,BKN,,0.00,427.0,WeatherDisplay:10.37,2013-03-28 17:53:00,
2013-03-28 13:58:00,49.2,25.9,30.28,NNE,24,3.2,8.1,40,0.00,BKN,,0.00,466.0,WeatherDisplay:10.37,2013-03-28 17:58:00,
2013-03-28 14:03:00,49.6,26.8,30.28,NNW,340,4.4,6.9,41,0.00,OVC,,0.00,478.0,WeatherDisplay:10.37,2013-03-28 18:03:00,
2013-03-28 14:08:00,50.1,25.5,30.28,West,272,4.2,6.9,38,0.00,OVC,,0.00,494.0,WeatherDisplay:10.37,2013-03-28 18:08:00,
2013-03-28 14:13:00,50.6,26.5,30.27,NNE,20,3.3,6.0,39,0.00,OVC,,0.00,905.0,WeatherDisplay:10.37,2013-03-28 18:13:00,
2013-03-28 14:18:00,51.0,26.3,30.27,North,360,4.3,6.9,38,0.00,OVC,,0.00,570.0,WeatherDisplay:10.37,2013-03-28 18:18:00,
2013-03-28 14:23:00,51.1,25.7,30.27,NNW,332,2.9,9.2,37,0.00,OVC,,0.00,504.0,WeatherDisplay:10.37,2013-03-28 18:23:00,
2013-03-28 14:28:00,50.8,25.4,30.27,West,259,2.8,6.9,37,0.00,OVC,,0.00,466.0,WeatherDisplay:10.37,2013-03-28 18:28:00,
2013-03-28 14:33:00,50.8,26.1,30.27,WSW,252,4.8,7.0,38,0.00,OVC,,0.00,520.0,WeatherDisplay:10.37,2013-03-28 18:33:00,
2013-03-28 14:38:00,50.7,25.3,30.27,WSW,251,4.1,9.2,37,0.00,OVC,,0.00,480.0,WeatherDisplay:10.37,2013-03-28 18:38:00,
2013-03-28 14:43:00,51.0,26.3,30.27,West,270,3.5,6.0,38,0.00,OVC,,0.00,1099.0,WeatherDisplay:10.37,2013-03-28 18:43:00,
2013-03-28 14:48:00,51.6,26.8,30.27,North,5,1.9,5.8,38,0.00,OVC,,0.00,911.0,WeatherDisplay:10.37,2013-03-28 18:48:00,
2013-03-28 14:53:00,51.9,25.8,30.27,WSW,256,2.9,7.0,36,0.00,OVC,,0.00,439.0,WeatherDisplay:10.37,2013-03-28 18:53:00,
2013-03-28 14:58:00,52.1,26.6,30.27,West,273,3.7,8.1,37,0.00,OVC,,0.00,610.0,WeatherDisplay:10.37,2013-03-28 18:58:00,
2013-03-28 15:03:00,52.5,26.3,30.27,WNW,286,3.3,6.0,36,0.00,BKN,,0.00,1009.0,WeatherDisplay:10.37,2013-03-28 19:03:00,
2013-03-28 15:08:00,52.5,26.3,30.26,West,260,3.1,6.0,36,0.00,BKN,,0.00,1009.0,WeatherDisplay:10.37,2013-03-28 19:08:00,
2013-03-28 15:13:00,52.8,25.9,30.26,WSW,249,3.6,4.6,35,0.00,BKN,,0.00,949.0,WeatherDisplay:10.37,2013-03-28 19:13:00,
2013-03-28 15:18:00,53.1,28.1,30.26,West,270,4.7,6.9,38,0.00,BKN,,0.00,582.0,WeatherDisplay:10.37,2013-03-28 19:18:00,
2013-03-28 15:23:00,53.3,26.3,30.26,NNE,20,3.9,5.8,35,0.00,BKN,,0.00,1055.0,WeatherDisplay:10.37,2013-03-28 19:23:00,
2013-03-28 15:28:00,53.4,26.4,30.26,NNE,17,3.3,6.9,35,0.00,BKN,,0.00,729.0,WeatherDisplay:10.37,2013-03-28 19:28:00,
2013-03-28 15:33:00,53.2,25.5,30.26,NW,326,3.0,6.9,34,0.00,BKN,,0.00,670.0,WeatherDisplay:10.37,2013-03-28 19:33:00,
2013-03-28 15:38:00,52.2,25.3,30.26,WNW,295,2.7,4.6,35,0.00,BKN,,0.00,520.0,WeatherDisplay:10.37,2013-03-28 19:38:00,
2013-03-28 15:43:00,52.0,25.2,30.26,NNE,25,3.5,5.8,35,0.00,BKN,,0.00,439.0,WeatherDisplay:10.37,2013-03-28 19:43:00,
2013-03-28 15:48:00,52.1,26.6,30.26,WNW,284,3.7,4.0,37,0.00,BKN,,0.00,577.0,WeatherDisplay:10.37,2013-03-28 19:48:00,
2013-03-28 15:53:00,52.2,26.0,30.26,West,266,2.3,4.6,36,0.00,BKN,,0.00,438.0,WeatherDisplay:10.37,2013-03-28 19:53:00,
2013-03-28 15:58:00,52.2,26.0,30.26,West,277,2.9,5.8,36,0.00,BKN,,0.00,443.0,WeatherDisplay:10.37,2013-03-28 19:58:00,
2013-03-28 16:03:00,51.9,25.8,30.26,West,263,3.6,4.6,36,0.00,BKN,,0.00,425.0,WeatherDisplay:10.37,2013-03-28 20:03:00,
2013-03-28 16:08:00,51.8,26.3,30.26,NW,322,3.0,5.8,37,0.00,BKN,,0.00,471.0,WeatherDisplay:10.37,2013-03-28 20:08:00,
2013-03-28 16:13:00,51.7,25.6,30.26,NNW,343,2.4,3.5,36,0.00,BKN,,0.00,345.0,WeatherDisplay:10.37,2013-03-28 20:13:00,
2013-03-28 16:18:00,51.8,26.3,30.26,West,261,1.9,3.5,37,0.00,BKN,,0.00,425.0,WeatherDisplay:10.37,2013-03-28 20:18:00,
2013-03-28 16:23:00,52.1,25.9,30.25,WNW,284,3.7,6.9,36,0.00,BKN,,0.00,394.0,WeatherDisplay:10.37,2013-03-28 20:23:00,
2013-03-28 16:28:00,52.1,25.9,30.25,West,277,3.8,5.8,36,0.00,BKN,,0.00,388.0,WeatherDisplay:10.37,2013-03-28 20:28:00,
2013-03-28 16:33:00,52.3,25.4,30.25,NNE,27,3.1,4.6,35,0.00,BKN,,0.00,439.0,WeatherDisplay:10.37,2013-03-28 20:33:00,
2013-03-28 16:38:00,52.5,26.3,30.25,West,265,3.1,4.6,36,0.00,BKN,,0.00,494.0,WeatherDisplay:10.37,2013-03-28 20:38:00,
2013-03-28 16:43:00,52.7,26.5,30.25,WNW,286,2.0,5.8,36,0.00,BKN,,0.00,538.0,WeatherDisplay:10.37,2013-03-28 20:43:00,
2013-03-28 16:48:00,52.7,26.5,30.25,SW,235,2.6,5.0,36,0.00,BKN,,0.00,471.0,WeatherDisplay:10.37,2013-03-28 20:48:00,
2013-03-28 16:53:00,52.6,26.4,30.25,West,274,2.9,8.1,36,0.00,BKN,,0.00,390.0,WeatherDisplay:10.37,2013-03-28 20:53:00,
2013-03-28 16:58:00,52.5,26.9,30.25,NW,308,3.0,8.1,37,0.00,BKN,,0.00,257.0,WeatherDisplay:10.37,2013-03-28 20:58:00,
2013-03-28 17:03:00,52.3,26.8,30.25,North,360,2.4,8.0,37,0.00,BKN,,0.00,232.0,WeatherDisplay:10.37,2013-03-28 21:03:00,
2013-03-28 17:08:00,51.9,27.1,30.25,West,263,2.9,5.0,38,0.00,BKN,,0.00,350.0,WeatherDisplay:10.37,2013-03-28 21:08:00,
2013-03-28 17:13:00,52.1,26.6,30.25,NW,305,1.6,3.5,37,0.00,BKN,,0.00,246.0,WeatherDisplay:10.37,2013-03-28 21:13:00,
2013-03-28 17:19:00,52.4,27.5,30.25,West,269,3.0,5.0,38,0.00,BKN,,0.00,357.0,WeatherDisplay:10.37,2013-03-28 21:19:00,
2013-03-28 17:24:00,52.6,27.0,30.25,West,259,3.3,10.0,37,0.00,BKN,,0.00,246.0,WeatherDisplay:10.37,2013-03-28 21:24:00,
2013-03-28 17:29:00,52.0,26.5,30.25,WNW,300,3.8,5.8,37,0.00,BKN,,0.00,225.0,WeatherDisplay:10.37,2013-03-28 21:29:00,
2013-03-28 17:34:00,51.6,26.1,30.25,North,360,3.4,4.6,37,0.00,BKN,,0.00,207.0,WeatherDisplay:10.37,2013-03-28 21:34:00,
2013-03-28 17:39:00,51.2,27.1,30.25,West,281,3.0,4.6,39,0.00,BKN,,0.00,188.0,WeatherDisplay:10.37,2013-03-28 21:39:00,
2013-03-28 17:44:00,51.3,26.5,30.25,West,278,2.8,4.0,38,0.00,BKN,,0.00,176.0,WeatherDisplay:10.37,2013-03-28 21:44:00,
2013-03-28 17:49:00,51.1,27.0,30.25,WNW,298,2.2,4.0,39,0.00,BKN,,0.00,153.0,WeatherDisplay:10.37,2013-03-28 21:49:00,
2013-03-28 17:54:00,51.0,27.5,30.25,West,265,2.4,3.5,40,0.00,BKN,,0.00,130.0,WeatherDisplay:10.37,2013-03-28 21:54:00,
2013-03-28 17:59:00,50.9,27.4,30.25,West,276,2.2,3.5,40,0.00,BKN,,0.00,128.0,WeatherDisplay:10.37,2013-03-28 21:59:00,
2013-03-28 18:04:00,50.8,27.3,30.25,NW,312,3.1,6.9,40,0.00,OVC,,0.00,120.0,WeatherDisplay:10.37,2013-03-28 22:04:00,
2013-03-28 18:09:00,50.6,27.7,30.25,NNW,333,1.3,2.3,41,0.00,OVC,,0.00,104.0,WeatherDisplay:10.37,2013-03-28 22:09:00,
2013-03-28 18:14:00,50.4,27.6,30.25,West,281,1.8,3.5,41,0.00,OVC,,0.00,91.0,WeatherDisplay:10.37,2013-03-28 22:14:00,
2013-03-28 18:19:00,50.3,28.1,30.25,WNW,294,1.5,2.3,42,0.00,OVC,,0.00,79.0,WeatherDisplay:10.37,2013-03-28 22:19:00,
2013-03-28 18:24:00,50.2,28.0,30.25,WNW,297,2.1,3.5,42,0.00,OVC,,0.00,70.0,WeatherDisplay:10.37,2013-03-28 22:24:00,
2013-03-28 18:29:00,50.0,27.2,30.25,WNW,286,1.7,3.5,41,0.00,OVC,,0.00,63.0,WeatherDisplay:10.37,2013-03-28 22:29:00,
2013-03-28 18:34:00,49.8,27.6,30.25,WNW,290,1.5,3.5,42,0.00,OVC,,0.00,56.0,WeatherDisplay:10.37,2013-03-28 22:34:00,
2013-03-28 18:39:00,49.6,26.8,30.25,WNW,290,2.1,3.5,41,0.00,OVC,,0.00,49.0,WeatherDisplay:10.37,2013-03-28 22:39:00,
2013-03-28 18:44:00,49.5,27.3,30.26,WNW,282,1.5,2.3,42,0.00,OVC,,0.00,42.0,WeatherDisplay:10.37,2013-03-28 22:44:00,
2013-03-28 18:49:00,49.4,26.7,30.26,West,275,1.8,4.0,41,0.00,OVC,,0.00,39.0,WeatherDisplay:10.37,2013-03-28 22:49:00,
2013-03-28 18:54:00,49.3,27.2,30.26,West,275,1.2,2.3,42,0.00,OVC,,0.00,33.0,WeatherDisplay:10.37,2013-03-28 22:54:00,
2013-03-28 18:59:00,49.1,26.4,30.26,WNW,294,1.3,2.3,41,0.00,OVC,,0.00,26.0,WeatherDisplay:10.37,2013-03-28 22:59:00,
2013-03-28 19:04:00,49.0,26.9,30.26,NNW,336,1.4,3.5,42,0.00,OVC,,0.00,23.0,WeatherDisplay:10.37,2013-03-28 23:04:00,
2013-03-28 19:09:00,48.9,26.8,30.26,NW,304,1.1,2.3,42,0.00,OVC,,0.00,19.0,WeatherDisplay:10.37,2013-03-28 23:09:00,
2013-03-28 19:14:00,48.7,26.6,30.26,NW,307,1.4,2.3,42,0.00,OVC,,0.00,16.0,WeatherDisplay:10.37,2013-03-28 23:14:00,
2013-03-28 19:19:00,48.7,27.2,30.26,NW,311,0.6,1.1,43,0.00,OVC,,0.00,14.0,WeatherDisplay:10.37,2013-03-28 23:19:00,
2013-03-28 19:24:00,48.5,28.1,30.26,NW,311,0.5,1.1,45,0.00,OVC,,0.00,12.0,WeatherDisplay:10.37,2013-03-28 23:24:00,
2013-03-28 19:29:00,48.3,27.4,30.26,NNW,330,1.3,3.5,44,0.00,OVC,,0.00,9.0,WeatherDisplay:10.37,2013-03-28 23:29:00,
2013-03-28 19:34:00,48.2,27.3,30.26,WNW,289,0.7,1.1,44,0.00,OVC,,0.00,7.0,WeatherDisplay:10.37,2013-03-28 23:34:00,
2013-03-28 19:39:00,48.1,27.7,30.26,WNW,289,0.9,2.3,45,0.00,OVC,,0.00,5.0,WeatherDisplay:10.37,2013-03-28 23:39:00,
2013-03-28 19:44:00,48.0,27.6,30.26,WNW,289,0.1,1.1,45,0.00,BKN,,0.00,0.0,WeatherDisplay:10.37,2013-03-28 23:44:00,
2013-03-28 19:49:00,47.9,28.1,30.26,WNW,299,0.8,2.3,46,0.00,BKN,,0.00,0.0,WeatherDisplay:10.37,2013-03-28 23:49:00,
2013-03-28 19:54:00,47.7,27.4,30.26,WNW,299,0.5,1.1,45,0.00,OVC,,0.00,0.0,WeatherDisplay:10.37,2013-03-28 23:54:00,
2013-03-28 19:59:00,47.6,27.3,30.27,WNW,302,0.7,2.3,45,0.00,OVC,,0.00,0.0,WeatherDisplay:10.37,2013-03-28 23:59:00,
2013-03-28 20:04:00,47.5,27.2,30.26,WNW,284,1.1,2.3,45,0.00,OVC,,0.00,0.0,WeatherDisplay:10.37,2013-03-29 00:04:00,
2013-03-28 20:09:00,47.5,27.2,30.26,NW,304,0.9,2.3,45,0.00,OVC,,0.00,0.0,WeatherDisplay:10.37,2013-03-29 00:09:00,
2013-03-28 20:14:00,47.4,26.6,30.27,WNW,299,0.9,2.3,44,0.00,OVC,,0.00,0.0,WeatherDisplay:10.37,2013-03-29 00:14:00,
2013-03-28 20:19:00,47.4,26.6,30.27,WNW,290,1.3,3.5,44,0.00,OVC,,0.00,0.0,WeatherDisplay:10.37,2013-03-29 00:19:00,
2013-03-28 20:24:00,47.3,27.0,30.27,NW,321,2.0,3.0,45,0.00,BKN,,0.00,0.0,WeatherDisplay:10.37,2013-03-29 00:24:00,
2013-03-28 20:29:00,47.3,27.0,30.27,NW,319,0.9,2.3,45,0.00,BKN,,0.00,0.0,WeatherDisplay:10.37,2013-03-29 00:29:00,
2013-03-28 20:34:00,47.2,26.9,30.27,WNW,290,2.0,3.5,45,0.00,BKN,,0.00,0.0,WeatherDisplay:10.37,2013-03-29 00:34:00,
2013-03-28 20:39:00,47.1,26.3,30.27,WNW,288,0.8,2.3,44,0.00,BKN,,0.00,0.0,WeatherDisplay:10.37,2013-03-29 00:39:00,
2013-03-28 20:44:00,47.0,26.7,30.27,WNW,294,1.3,2.3,45,0.00,BKN,,0.00,0.0,WeatherDisplay:10.37,2013-03-29 00:44:00,
2013-03-28 20:49:00,47.0,26.7,30.27,NW,314,0.5,2.3,45,0.00,BKN,,0.00,0.0,WeatherDisplay:10.37,2013-03-29 00:49:00,
2013-03-28 20:54:00,46.9,26.6,30.27,WNW,296,1.6,3.5,45,0.00,BKN,,0.00,0.0,WeatherDisplay:10.37,2013-03-29 00:54:00,
2013-03-28 20:59:00,46.8,27.1,30.27,NW,309,1.6,2.3,46,0.00,BKN,,0.00,0.0,WeatherDisplay:10.37,2013-03-29 00:59:00,
2013-03-28 21:04:00,46.6,26.9,30.27,WNW,287,1.5,2.3,46,0.00,BKN,,0.00,0.0,WeatherDisplay:10.37,2013-03-29 01:04:00,
2013-03-28 21:09:00,46.5,26.8,30.27,WNW,290,0.5,2.3,46,0.00,BKN,,0.00,0.0,WeatherDisplay:10.37,2013-03-29 01:09:00,
2013-03-28 21:14:00,46.4,26.7,30.27,WNW,289,0.2,1.1,46,0.00,BKN,,0.00,0.0,WeatherDisplay:10.37,2013-03-29 01:14:00,
2013-03-28 21:19:00,46.3,27.2,30.27,WNW,289,0.2,1.1,47,0.00,BKN,,0.00,0.0,WeatherDisplay:10.37,2013-03-29 01:19:00,
2013-03-28 21:24:00,46.2,27.6,30.27,WNW,289,0.3,1.1,48,0.00,BKN,,0.00,0.0,WeatherDisplay:10.37,2013-03-29 01:24:00,
2013-03-28 21:29:00,46.0,26.9,30.27,WNW,289,0.3,2.3,47,0.00,BKN,,0.00,0.0,WeatherDisplay:10.37,2013-03-29 01:29:00,
2013-03-28 21:34:00,45.9,26.8,30.27,WNW,290,0.1,1.1,47,0.00,BKN,,0.00,0.0,WeatherDisplay:10.37,2013-03-29 01:34:00,
2013-03-28 21:39:00,45.8,27.2,30.28,WNW,290,0.3,1.1,48,0.00,BKN,,0.00,0.0,WeatherDisplay:10.37,2013-03-29 01:39:00,
2013-03-28 21:44:00,45.6,27.5,30.28,WNW,290,0.3,1.1,49,0.00,BKN,,0.00,0.0,WeatherDisplay:10.37,2013-03-29 01:44:00,
2013-03-28 21:49:00,45.4,27.3,30.28,WNW,290,0.0,0.0,49,0.00,BKN,,0.00,0.0,WeatherDisplay:10.37,2013-03-29 01:49:00,
2013-03-28 21:54:00,45.0,27.9,30.28,WNW,290,0.2,1.1,51,0.00,BKN,,0.00,0.0,WeatherDisplay:10.37,2013-03-29 01:54:00,
2013-03-28 21:59:00,44.7,27.7,30.28,WNW,290,0.1,1.1,51,0.00,BKN,,0.00,0.0,WeatherDisplay:10.37,2013-03-29 01:59:00,
2013-03-28 22:04:00,44.3,26.8,30.28,WNW,290,0.2,1.1,50,0.00,OVC,,0.00,0.0,WeatherDisplay:10.37,2013-03-29 02:04:00,
2013-03-28 22:09:00,44.2,26.7,30.29,WNW,290,0.4,1.1,50,0.00,OVC,,0.00,0.0,WeatherDisplay:10.37,2013-03-29 02:09:00,
2013-03-28 22:14:00,44.1,26.6,30.29,WNW,290,0.2,1.1,50,0.00,OVC,,0.00,0.0,WeatherDisplay:10.37,2013-03-29 02:14:00,
2013-03-28 22:19:00,44.2,26.7,30.29,WNW,299,0.5,1.1,50,0.00,OVC,,0.00,0.0,WeatherDisplay:10.37,2013-03-29 02:19:00,
2013-03-28 22:24:00,44.3,26.8,30.29,WNW,301,0.4,1.1,50,0.00,BKN,,0.00,0.0,WeatherDisplay:10.37,2013-03-29 02:24:00,
2013-03-28 22:29:00,44.3,26.8,30.29,WNW,301,0.1,1.1,50,0.00,BKN,,0.00,0.0,WeatherDisplay:10.37,2013-03-29 02:29:00,
2013-03-28 22:34:00,44.3,26.8,30.29,WNW,301,0.4,1.1,50,0.00,OVC,,0.00,0.0,WeatherDisplay:10.37,2013-03-29 02:34:00,
2013-03-28 22:39:00,44.2,26.7,30.29,WNW,301,0.2,1.1,50,0.00,OVC,,0.00,0.0,WeatherDisplay:10.37,2013-03-29 02:39:00,
2013-03-28 22:44:00,44.2,27.2,30.29,WNW,301,0.6,1.1,51,0.00,OVC,,0.00,0.0,WeatherDisplay:10.37,2013-03-29 02:44:00,
2013-03-28 22:49:00,43.9,28.3,30.29,WNW,301,1.0,1.1,54,0.00,OVC,,0.00,0.0,WeatherDisplay:10.37,2013-03-29 02:49:00,
2013-03-28 22:54:00,43.5,28.4,30.29,WNW,295,0.5,2.3,55,0.00,OVC,,0.00,0.0,WeatherDisplay:10.37,2013-03-29 02:54:00,
2013-03-28 22:59:00,43.2,27.7,30.29,WNW,287,1.1,3.0,54,0.00,OVC,,0.00,0.0,WeatherDisplay:10.37,2013-03-29 02:59:00,
2013-03-28 23:04:00,43.1,27.6,30.29,WNW,286,0.5,1.1,54,0.00,OVC,,0.00,0.0,WeatherDisplay:10.37,2013-03-29 03:04:00,
2013-03-28 23:09:00,43.1,27.6,30.29,WNW,283,0.7,2.3,54,0.00,OVC,,0.00,0.0,WeatherDisplay:10.37,2013-03-29 03:09:00,
2013-03-28 23:14:00,43.2,27.2,30.29,West,268,1.6,3.5,53,0.00,OVC,,0.00,0.0,WeatherDisplay:10.37,2013-03-29 03:14:00,
2013-03-28 23:19:00,43.5,27.5,30.29,West,278,1.4,4.0,53,0.00,OVC,,0.00,0.0,WeatherDisplay:10.37,2013-03-29 03:19:00,
2013-03-28 23:24:00,43.7,27.2,30.29,West,281,2.4,6.9,52,0.00,OVC,,0.00,0.0,WeatherDisplay:10.37,2013-03-29 03:24:00,
2013-03-28 23:29:00,43.8,27.3,30.29,WNW,299,1.5,3.5,52,0.00,OVC,,0.00,0.0,WeatherDisplay:10.37,2013-03-29 03:29:00,
2013-03-28 23:35:00,43.8,27.3,30.29,NW,305,1.5,2.3,52,0.00,BKN,,0.00,0.0,WeatherDisplay:10.37,2013-03-29 03:35:00,
2013-03-28 23:40:00,43.7,27.2,30.29,WNW,282,1.7,3.5,52,0.00,BKN,,0.00,0.0,WeatherDisplay:10.37,2013-03-29 03:40:00,
2013-03-28 23:45:00,43.5,27.5,30.29,NW,323,2.5,3.5,53,0.00,BKN,,0.00,0.0,WeatherDisplay:10.37,2013-03-29 03:45:00,
2013-03-28 23:50:00,43.3,27.3,30.30,WNW,287,3.0,4.6,53,0.00,BKN,,0.00,0.0,WeatherDisplay:10.37,2013-03-29 03:50:00,
2013-03-28 23:55:00,42.9,27.4,30.30,West,273,1.4,3.5,54,0.00,OVC,,0.00,0.0,WeatherDisplay:10.37,2013-03-29 03:55:00,